Location: Altenst�hlen
(53.5567°N, 8.9425°E)
Time: 01:25:14
(UTC+00:00)

Meteor 2-3 Rocket - Pass Details

Date: 23 October 2019
Orbit: 843 x 884 km, 81.2° (Epoch: 21 November)

Event Time Altitude Azimuth Distance (km) Brightness Sun altitude
Rises 18:59:55 0° 347° (NNW) 3,479 7.3 -25.6°
Reaches altitude 10° 19:02:23 10° 350° (N) 2,542 6.5 -26.0°
Enters shadow 19:07:58 70° 58° (ENE) 940 3.7 -26.8°
